[[{"header":{"parameterUnit":"m.s-1","parameterCategory":1,"la1":30.2992,"la2":30.254,"lo1":-89.0895,"lo2":-89.0443,"dy":0.0025,"dx":0.0025,"nx":19,"ny":19,"refTime":"2026-05-22T09:00:00:Z","depth":0,"parameterNumber":2,"parameterNumberName":"U-component_of_WINDS"},"data":[0,0,0,-1.0702,-1.0703,-1.077,-1.0771,-1.0858,-1.0859,0,0,0,0,0,0,0,0,0,0,0,-1.068,-1.0681,-1.0702,-1.0703,-1.077,-1.0771,-1.0858,-1.0859,0,0,0,0,0,0,0,0,0,0,0,-1.068,-1.0681,-1.0681,-1.0703,-1.077,-1.0771,-1.0858,-1.0807,0,0,0,0,0,0,0,0,0,0,-1.0742,-1.072,-1.0681,-1.0681,-1.0704,-1.077,-1.0771,-1.0804,-1.081,-1.0827,0,-1.084,0,-1.0851,-1.0864,-1.0865,0,0,0,-1.0705,-1.0715,-1.0735,-1.0682,-1.0704,-1.077,-1.0741,-1.0808,-1.0814,-1.0835,-1.0842,-1.0845,-1.0852,-1.0865,-1.0865,-1.0956,-1.0956,0,0,-1.0701,-1.0692,-1.073,-1.0739,-1.0726,-1.0738,-1.0743,-1.0811,-1.0819,-1.0842,-1.0847,-1.0854,-1.0866,-1.0866,-1.0956,-1.0956,0,0,0,-1.0689,-1.069,-1.0707,-1.0735,-1.0747,-1.074,-1.0745,-1.0816,-1.0823,-1.0848,-1.0855,-1.0866,-1.0867,-1.0955,-1.0956,-1.0964,0,0,0,-1.0687,-1.0683,-1.0705,-1.0701,-1.0746,-1.0782,-1.0748,-1.0818,-1.0826,-1.0854,-1.0866,-1.0868,-1.0955,-1.0956,-1.0963,-1.0969,0,0,0,-1.0677,-1.0682,-1.0691,-1.07,-1.0728,-1.0781,-1.0791,-1.082,-1.083,-1.0865,-1.0868,-1.0955,-1.0955,-1.0962,-1.0968,-1.0991,0,0,0,-1.0663,-1.0697,-1.0691,-1.0732,-1.0728,-1.0785,-1.0791,-1.0834,-1.0865,-1.0866,-1.0955,-1.0956,-1.0962,-1.0967,-1.099,-1.1008,-1.1015,0,0,-1.0702,-1.0702,-1.0727,-1.0723,-1.0778,-1.0776,-1.0834,-1.0871,-1.0883,-1.0932,-1.0934,-1.0963,-1.0968,-1.099,-1.1056,-1.1061,0,0,0,-1.0736,-1.0754,-1.0771,-1.0799,-1.0828,-1.0853,-1.0882,-1.0897,-1.0938,-1.0906,-1.0978,-1.0981,-1.0995,-1.1004,-1.1009,-1.1021,-1.096,-1.0959,-1.0959,-1.0778,-1.0791,-1.0834,-1.0855,-1.0883,-1.0913,-1.0937,-1.0962,-1.0967,-1.0984,-1.0998,-1.1036,-1.1047,-1.105,-1.1063,-1.101,-1.101,-1.101,-1.101,-1.0836,-1.0863,-1.087,-1.0913,-1.0928,-1.0965,-1.0997,-1.1,-1.1038,-1.1027,-1.104,-1.1026,-1.1056,-1.1068,-1.101,-1.101,-1.101,-1.101,-1.101,-1.0864,-1.088,-1.0896,-1.0938,-1.097,-1.0992,-1.1028,-1.104,-1.1053,-1.1065,-1.1082,-1.1082,-1.1084,-1.1072,-1.1073,-1.1073,-1.1073,-1.1073,-1.1073,-1.0888,-1.0905,-1.0933,-1.0967,-1.0987,-1.1016,-1.1047,-1.1068,-1.1095,-1.1101,-1.1102,-1.1106,-1.1056,-1.1043,-1.1075,-1.1075,-1.1074,-1.1074,-1.1074,-1.0941,-1.0931,-1.0974,-1.0994,-1.1036,-1.1067,-1.1083,-1.1125,-1.1144,-1.1162,-1.1164,-1.1125,-1.1126,-1.1123,-1.1112,-1.1161,-1.1161,-1.1161,-1.1161,-1.0965,-1.0967,-1.1014,-1.1046,-1.1078,-1.1097,-1.1147,-1.1173,-1.1199,-1.1212,-1.1207,-1.1194,-1.119,-1.1194,-1.1189,-1.1179,-1.1244,-1.1244,-1.1244,-1.0999,-1.1005,-1.1044,-1.1067,-1.1101,-1.113,-1.1178,-1.1216,-1.1243,-1.1247,-1.1223,-1.1219,-1.1199,-1.1191,-1.1194,-1.1186,-1.1169,0,0]},{"header":{"parameterUnit":"m.s-1","parameterCategory":1,"la1":30.2992,"la2":30.254,"lo1":-89.0895,"lo2":-89.0443,"dy":0.0025,"dx":0.0025,"nx":19,"ny":19,"refTime":"2026-05-22T09:00:00:Z","depth":0,"parameterNumber":3,"parameterNumberName":"V-component_of_WINDS"},"data":[0,0,0,3.6699,3.67,3.676,3.676,3.6849,3.685,0,0,0,0,0,0,0,0,0,0,0,3.6689,3.669,3.6699,3.67,3.676,3.676,3.6849,3.685,0,0,0,0,0,0,0,0,0,0,0,3.6689,3.669,3.6691,3.6701,3.676,3.676,3.6849,3.6799,0,0,0,0,0,0,0,0,0,0,3.6739,3.6739,3.669,3.6691,3.6701,3.676,3.676,3.6797,3.6802,3.6828,0,3.6854,0,3.6854,3.6857,3.6858,0,0,0,3.6694,3.6734,3.6743,3.6691,3.6702,3.676,3.6731,3.68,3.6806,3.6836,3.6855,3.6858,3.6855,3.6858,3.6858,3.7031,3.7032,0,0,3.669,3.6705,3.6738,3.6747,3.674,3.6729,3.6733,3.6803,3.6825,3.6855,3.686,3.6857,3.6859,3.6859,3.703,3.7031,0,0,0,3.6685,3.6703,3.6709,3.6744,3.6754,3.6731,3.6736,3.6822,3.6823,3.6861,3.6858,3.6859,3.686,3.7028,3.703,3.71,0,0,0,3.6683,3.67,3.6708,3.6717,3.6753,3.6789,3.6753,3.6818,3.6825,3.6857,3.6859,3.6861,3.7027,3.7029,3.7095,3.7131,0,0,0,3.6683,3.6699,3.6711,3.6718,3.6744,3.6787,3.6792,3.6819,3.6824,3.6858,3.6862,3.7026,3.7029,3.7091,3.7124,3.7181,0,0,0,3.6686,3.6772,3.6713,3.6807,3.6744,3.683,3.6792,3.6855,3.6892,3.686,3.7027,3.703,3.709,3.712,3.7177,3.7232,3.7257,0,0,3.6802,3.6786,3.6841,3.6789,3.689,3.682,3.693,3.695,3.694,3.7001,3.7005,3.7097,3.7123,3.718,3.7386,3.7405,0,0,0,3.6882,3.6922,3.6945,3.6982,3.6999,3.7017,3.7019,3.7026,3.7077,3.6974,3.7132,3.7147,3.718,3.7206,3.7222,3.725,3.7042,3.7042,3.7042,3.7068,3.705,3.7139,3.7129,3.7165,3.7165,3.7192,3.7202,3.7173,3.7211,3.7229,3.7356,3.7387,3.74,3.7428,3.7256,3.7256,3.7257,3.7257,3.7237,3.7291,3.725,3.7323,3.7303,3.7363,3.7366,3.7344,3.7397,3.7341,3.7369,3.731,3.7422,3.7446,3.7262,3.7261,3.726,3.726,3.726,3.7358,3.738,3.7388,3.7439,3.7479,3.7465,3.7518,3.7498,3.7479,3.7506,3.7524,3.7523,3.752,3.7516,3.7516,3.7517,3.7517,3.7517,3.7518,3.7481,3.7487,3.7534,3.756,3.758,3.7605,3.7606,3.7625,3.7642,3.7623,3.7623,3.7591,3.7435,3.7397,3.7525,3.7523,3.7522,3.7522,3.7521,3.7661,3.7617,3.769,3.7711,3.7739,3.7781,3.7754,3.7796,3.7809,3.7835,3.7797,3.7685,3.7667,3.7654,3.7622,3.78,3.78,3.78,3.78,3.7764,3.7753,3.7823,3.7858,3.7889,3.7872,3.7955,3.7956,3.795,3.7957,3.7928,3.7884,3.7871,3.7861,3.7843,3.7813,3.8036,3.8036,3.8036,3.7874,3.7865,3.794,3.7934,3.7955,3.7972,3.805,3.8091,3.8074,3.8045,3.7962,3.7952,3.7881,3.7858,3.7829,3.7802,3.7747,0,0]}]]